owner,sensor,date,latitude,longitude,vertical_datum,sea_water_practical_salinity,qcFlag 
LUMCON,ioos:station:LUMCON:102:1,2014-12-01T12:45:00Z,29.1870,-90.6093,2.07,26.37,1111122 
LUMCON,ioos:station:LUMCON:102:1,2014-12-02T18:15:00Z,29.1870,-90.6093,2.26,26.82,1111122 
LUMCON,ioos:station:LUMCON:102:1,2014-12-05T11:45:00Z,29.1870,-90.6093,2.11,24.0,1111122 
LUMCON,ioos:station:LUMCON:102:1,2014-12-05T12:45:00Z,29.1870,-90.6093,2.17,24.33,1111122 
LUMCON,ioos:station:LUMCON:102:1,2014-12-05T13:45:00Z,29.1870,-90.6093,2.23,24.73,1111122 
LUMCON,ioos:station:LUMCON:102:1,2014-12-05T14:45:00Z,29.1870,-90.6093,2.28,25.3,1111122 
LUMCON,ioos:station:LUMCON:102:1,2014-12-05T15:45:00Z,29.1870,-90.6093,2.32,25.97,1111122 
LUMCON,ioos:station:LUMCON:102:1,2014-12-05T16:45:00Z,29.1870,-90.6093,2.36,26.37,1111122 
LUMCON,ioos:station:LUMCON:102:1,2014-12-05T17:45:00Z,29.1870,-90.6093,2.39,26.64,1111122 
LUMCON,ioos:station:LUMCON:102:1,2014-12-05T18:45:00Z,29.1870,-90.6093,2.43,26.95,1111122 
LUMCON,ioos:station:LUMCON:102:1,2014-12-05T19:45:00Z,29.1870,-90.6093,2.46,27.25,1111122 
LUMCON,ioos:station:LUMCON:102:1,2014-12-05T20:45:00Z,29.1870,-90.6093,2.46,27.49,1111122 
LUMCON,ioos:station:LUMCON:102:1,2014-12-05T21:45:00Z,29.1870,-90.6093,2.45,27.67,1111122 
LUMCON,ioos:station:LUMCON:102:1,2014-12-05T22:45:00Z,29.1870,-90.6093,2.41,27.67,1111122 
LUMCON,ioos:station:LUMCON:102:1,2014-12-05T23:45:00Z,29.1870,-90.6093,2.39,27.68,1111122 
LUMCON,ioos:station:LUMCON:102:1,2014-12-06T00:45:00Z,29.1870,-90.6093,2.35,26.15,1111122 
LUMCON,ioos:station:LUMCON:102:1,2014-12-06T02:45:00Z,29.1870,-90.6093,2.21,27.05,1111122 
LUMCON,ioos:station:LUMCON:102:1,2014-12-06T03:45:00Z,29.1870,-90.6093,2.15,24.56,1111122 
LUMCON,ioos:station:LUMCON:102:1,2014-12-06T04:45:00Z,29.1870,-90.6093,2.07,26.12,1111122 
LUMCON,ioos:station:LUMCON:102:1,2014-12-06T05:45:00Z,29.1870,-90.6093,2.01,25.56,1111122 
LUMCON,ioos:station:LUMCON:102:1,2014-12-06T06:45:00Z,29.1870,-90.6093,1.95,24.78,1111122 
LUMCON,ioos:station:LUMCON:102:1,2014-12-06T07:45:00Z,29.1870,-90.6093,1.9,24.32,1111122 
LUMCON,ioos:station:LUMCON:102:1,2014-12-06T08:45:00Z,29.1870,-90.6093,1.89,23.92,1111122 
LUMCON,ioos:station:LUMCON:102:1,2014-12-06T09:45:00Z,29.1870,-90.6093,1.87,23.82,1111122 
LUMCON,ioos:station:LUMCON:102:1,2014-12-06T10:45:00Z,29.1870,-90.6093,1.89,23.86,1111122 
LUMCON,ioos:station:LUMCON:102:1,2014-12-06T11:45:00Z,29.1870,-90.6093,1.94,23.97,1111122 
LUMCON,ioos:station:LUMCON:102:1,2014-12-06T12:45:00Z,29.1870,-90.6093,2.0,24.49,1111122 
LUMCON,ioos:station:LUMCON:102:1,2014-12-06T13:45:00Z,29.1870,-90.6093,2.06,24.61,1111122 
LUMCON,ioos:station:LUMCON:102:1,2014-12-06T14:45:00Z,29.1870,-90.6093,2.12,24.77,1111122 
LUMCON,ioos:station:LUMCON:102:1,2014-12-06T15:45:00Z,29.1870,-90.6093,2.18,25.18,1111122 
LUMCON,ioos:station:LUMCON:102:1,2014-12-06T16:45:00Z,29.1870,-90.6093,2.22,25.44,1111122 
LUMCON,ioos:station:LUMCON:102:1,2014-12-06T17:45:00Z,29.1870,-90.6093,2.26,25.69,1111122 
LUMCON,ioos:station:LUMCON:102:1,2014-12-06T18:45:00Z,29.1870,-90.6093,2.28,25.96,1111122 
LUMCON,ioos:station:LUMCON:102:1,2014-12-06T19:45:00Z,29.1870,-90.6093,2.31,25.87,1111122 
LUMCON,ioos:station:LUMCON:102:1,2014-12-06T20:45:00Z,29.1870,-90.6093,2.34,26.45,1111122 
LUMCON,ioos:station:LUMCON:102:1,2014-12-06T21:45:00Z,29.1870,-90.6093,2.36,26.68,1111122 
LUMCON,ioos:station:LUMCON:102:1,2014-12-06T22:45:00Z,29.1870,-90.6093,2.35,26.64,1111122 
LUMCON,ioos:station:LUMCON:102:1,2014-12-06T23:45:00Z,29.1870,-90.6093,2.27,26.36,1111122 
LUMCON,ioos:station:LUMCON:102:1,2014-12-07T00:45:00Z,29.1870,-90.6093,2.21,26.08,1111122 
LUMCON,ioos:station:LUMCON:102:1,2014-12-07T01:45:00Z,29.1870,-90.6093,2.15,25.25,1111122 
LUMCON,ioos:station:LUMCON:102:1,2014-12-07T02:45:00Z,29.1870,-90.6093,2.08,24.52,1111122 
LUMCON,ioos:station:LUMCON:102:1,2014-12-07T03:45:00Z,29.1870,-90.6093,2.02,23.1,1111122 
LUMCON,ioos:station:LUMCON:102:1,2014-12-07T04:45:00Z,29.1870,-90.6093,1.99,23.41,1111122 
LUMCON,ioos:station:LUMCON:102:1,2014-12-07T05:45:00Z,29.1870,-90.6093,1.94,23.62,1111122 
LUMCON,ioos:station:LUMCON:102:1,2014-12-07T06:45:00Z,29.1870,-90.6093,1.87,23.86,1111122 
LUMCON,ioos:station:LUMCON:102:1,2014-12-07T07:45:00Z,29.1870,-90.6093,1.85,23.73,1111122 
LUMCON,ioos:station:LUMCON:102:1,2014-12-07T08:45:00Z,29.1870,-90.6093,1.84,23.74,1111122 
LUMCON,ioos:station:LUMCON:102:1,2014-12-07T09:45:00Z,29.1870,-90.6093,1.85,23.91,1111122 
LUMCON,ioos:station:LUMCON:102:1,2014-12-07T10:45:00Z,29.1870,-90.6093,1.85,24.12,1111122 
LUMCON,ioos:station:LUMCON:102:1,2014-12-07T11:45:00Z,29.1870,-90.6093,1.89,23.91,1111122 
LUMCON,ioos:station:LUMCON:102:1,2014-12-07T12:45:00Z,29.1870,-90.6093,1.94,24.07,1111122 
LUMCON,ioos:station:LUMCON:102:1,2014-12-07T13:45:00Z,29.1870,-90.6093,1.97,24.5,1111122 
LUMCON,ioos:station:LUMCON:102:1,2014-12-07T14:45:00Z,29.1870,-90.6093,2.04,24.52,1111122 
LUMCON,ioos:station:LUMCON:102:1,2014-12-07T15:45:00Z,29.1870,-90.6093,2.1,24.41,1111122 
LUMCON,ioos:station:LUMCON:102:1,2014-12-07T16:45:00Z,29.1870,-90.6093,2.17,24.93,1111122 
LUMCON,ioos:station:LUMCON:102:1,2014-12-07T17:45:00Z,29.1870,-90.6093,2.24,25.38,1111122 
LUMCON,ioos:station:LUMCON:102:1,2014-12-07T18:45:00Z,29.1870,-90.6093,2.29,25.47,1111122 
LUMCON,ioos:station:LUMCON:102:1,2014-12-07T19:45:00Z,29.1870,-90.6093,2.34,26.03,1111122 
LUMCON,ioos:station:LUMCON:102:1,2014-12-07T20:45:00Z,29.1870,-90.6093,2.38,26.74,1111122 
LUMCON,ioos:station:LUMCON:102:1,2014-12-07T21:45:00Z,29.1870,-90.6093,2.41,26.98,1111122 
LUMCON,ioos:station:LUMCON:102:1,2014-12-07T22:45:00Z,29.1870,-90.6093,2.42,27.37,1111122 
LUMCON,ioos:station:LUMCON:102:1,2014-12-07T23:45:00Z,29.1870,-90.6093,2.39,28.0,1111122 
LUMCON,ioos:station:LUMCON:102:1,2014-12-08T00:45:00Z,29.1870,-90.6093,2.39,28.07,1111122 
LUMCON,ioos:station:LUMCON:102:1,2014-12-08T01:45:00Z,29.1870,-90.6093,2.35,28.12,1111122 
LUMCON,ioos:station:LUMCON:102:1,2014-12-08T02:45:00Z,29.1870,-90.6093,2.3,28.13,1111122 
LUMCON,ioos:station:LUMCON:102:1,2014-12-08T03:45:00Z,29.1870,-90.6093,2.23,28.02,1111122 
LUMCON,ioos:station:LUMCON:102:1,2014-12-08T04:45:00Z,29.1870,-90.6093,2.18,27.03,1111122 
LUMCON,ioos:station:LUMCON:102:1,2014-12-08T05:45:00Z,29.1870,-90.6093,2.09,26.07,1111122 
LUMCON,ioos:station:LUMCON:102:1,2014-12-08T06:45:00Z,29.1870,-90.6093,2.03,25.59,1111122 
LUMCON,ioos:station:LUMCON:102:1,2014-12-08T07:45:00Z,29.1870,-90.6093,1.98,24.95,1111122 
LUMCON,ioos:station:LUMCON:102:1,2014-12-08T08:45:00Z,29.1870,-90.6093,1.93,24.6,1111122 
LUMCON,ioos:station:LUMCON:102:1,2014-12-08T09:45:00Z,29.1870,-90.6093,1.89,24.45,1111122 
LUMCON,ioos:station:LUMCON:102:1,2014-12-08T10:45:00Z,29.1870,-90.6093,1.88,24.41,1111122 
LUMCON,ioos:station:LUMCON:102:1,2014-12-08T11:45:00Z,29.1870,-90.6093,1.89,24.45,1111122 
LUMCON,ioos:station:LUMCON:102:1,2014-12-08T12:45:00Z,29.1870,-90.6093,1.91,24.38,1111122 
LUMCON,ioos:station:LUMCON:102:1,2014-12-08T13:45:00Z,29.1870,-90.6093,1.95,24.35,1111122 
LUMCON,ioos:station:LUMCON:102:1,2014-12-08T14:45:00Z,29.1870,-90.6093,1.99,24.68,1111122 
LUMCON,ioos:station:LUMCON:102:1,2014-12-08T17:45:00Z,29.1870,-90.6093,2.19,26.18,1111122 
LUMCON,ioos:station:LUMCON:102:1,2014-12-08T18:45:00Z,29.1870,-90.6093,2.24,24.89,1111122 
LUMCON,ioos:station:LUMCON:102:1,2014-12-08T19:45:00Z,29.1870,-90.6093,2.27,24.42,1111122 
LUMCON,ioos:station:LUMCON:102:1,2014-12-08T20:45:00Z,29.1870,-90.6093,2.28,24.26,1111122 
LUMCON,ioos:station:LUMCON:102:1,2014-12-08T21:45:00Z,29.1870,-90.6093,2.29,27.24,1111122 
LUMCON,ioos:station:LUMCON:102:1,2014-12-08T22:45:00Z,29.1870,-90.6093,2.31,27.59,1111122 
LUMCON,ioos:station:LUMCON:102:1,2014-12-08T23:45:00Z,29.1870,-90.6093,2.29,27.63,1111122 
LUMCON,ioos:station:LUMCON:102:1,2014-12-09T00:45:00Z,29.1870,-90.6093,2.27,28.24,1111122 
LUMCON,ioos:station:LUMCON:102:1,2014-12-09T01:45:00Z,29.1870,-90.6093,2.24,26.61,1111122 
LUMCON,ioos:station:LUMCON:102:1,2014-12-09T02:45:00Z,29.1870,-90.6093,2.2,26.08,1111122 
LUMCON,ioos:station:LUMCON:102:1,2014-12-09T03:45:00Z,29.1870,-90.6093,2.15,24.94,1111122 
LUMCON,ioos:station:LUMCON:102:1,2014-12-09T04:45:00Z,29.1870,-90.6093,2.1,25.39,1111122 
LUMCON,ioos:station:LUMCON:102:1,2014-12-09T05:45:00Z,29.1870,-90.6093,2.04,23.59,1111122 
LUMCON,ioos:station:LUMCON:102:1,2014-12-09T06:45:00Z,29.1870,-90.6093,1.97,24.19,1111122 
LUMCON,ioos:station:LUMCON:102:1,2014-12-09T07:45:00Z,29.1870,-90.6093,1.92,23.53,1111122 
LUMCON,ioos:station:LUMCON:102:1,2014-12-09T08:45:00Z,29.1870,-90.6093,1.88,21.84,1111122 
LUMCON,ioos:station:LUMCON:102:1,2014-12-09T09:45:00Z,29.1870,-90.6093,1.85,21.15,1111122 
LUMCON,ioos:station:LUMCON:102:1,2014-12-09T10:45:00Z,29.1870,-90.6093,1.84,20.87,1111122 
LUMCON,ioos:station:LUMCON:102:1,2014-12-09T11:45:00Z,29.1870,-90.6093,1.85,21.82,1111122 
LUMCON,ioos:station:LUMCON:102:1,2014-12-09T12:45:00Z,29.1870,-90.6093,1.89,22.02,1111122 
LUMCON,ioos:station:LUMCON:102:1,2014-12-09T13:45:00Z,29.1870,-90.6093,1.94,22.24,1111122 
LUMCON,ioos:station:LUMCON:102:1,2014-12-09T14:45:00Z,29.1870,-90.6093,2.0,22.38,1111122 
LUMCON,ioos:station:LUMCON:102:1,2014-12-09T15:45:00Z,29.1870,-90.6093,2.06,23.53,1111122 
LUMCON,ioos:station:LUMCON:102:1,2014-12-09T16:45:00Z,29.1870,-90.6093,2.1,24.19,1111122 
LUMCON,ioos:station:LUMCON:102:1,2014-12-09T17:45:00Z,29.1870,-90.6093,2.13,23.62,1111122 
LUMCON,ioos:station:LUMCON:102:1,2014-12-10T14:45:00Z,29.1870,-90.6093,1.96,24.85,1111122 
LUMCON,ioos:station:LUMCON:102:1,2014-12-10T15:45:00Z,29.1870,-90.6093,2.02,24.69,1111122 
LUMCON,ioos:station:LUMCON:102:1,2014-12-10T16:45:00Z,29.1870,-90.6093,2.07,25.0,1111122 
LUMCON,ioos:station:LUMCON:102:1,2014-12-10T17:45:00Z,29.1870,-90.6093,2.12,25.68,1111122 
LUMCON,ioos:station:LUMCON:102:1,2014-12-10T18:45:00Z,29.1870,-90.6093,2.15,26.44,1111122 
LUMCON,ioos:station:LUMCON:102:1,2014-12-10T19:45:00Z,29.1870,-90.6093,2.18,26.32,1111122 
LUMCON,ioos:station:LUMCON:102:1,2014-12-10T20:45:00Z,29.1870,-90.6093,2.19,26.99,1111122 
LUMCON,ioos:station:LUMCON:102:1,2014-12-10T21:45:00Z,29.1870,-90.6093,2.21,27.4,1111122 
LUMCON,ioos:station:LUMCON:102:1,2014-12-10T22:45:00Z,29.1870,-90.6093,2.2,27.97,1111122 
LUMCON,ioos:station:LUMCON:102:1,2014-12-10T23:45:00Z,29.1870,-90.6093,2.22,28.25,1111122 
LUMCON,ioos:station:LUMCON:102:1,2014-12-11T00:45:00Z,29.1870,-90.6093,2.21,28.74,1111122 
LUMCON,ioos:station:LUMCON:102:1,2014-12-11T01:45:00Z,29.1870,-90.6093,2.18,29.12,1111122 
LUMCON,ioos:station:LUMCON:102:1,2014-12-11T03:45:00Z,29.1870,-90.6093,2.14,29.99,1111122 
LUMCON,ioos:station:LUMCON:102:1,2014-12-11T05:45:00Z,29.1870,-90.6093,2.03,29.65,1111122 
LUMCON,ioos:station:LUMCON:102:1,2014-12-11T06:45:00Z,29.1870,-90.6093,1.99,26.14,1111122 
LUMCON,ioos:station:LUMCON:102:1,2014-12-11T07:45:00Z,29.1870,-90.6093,1.95,25.11,1111122 
LUMCON,ioos:station:LUMCON:102:1,2014-12-11T08:45:00Z,29.1870,-90.6093,1.91,24.57,1111122 
LUMCON,ioos:station:LUMCON:102:1,2014-12-11T09:45:00Z,29.1870,-90.6093,1.87,23.98,1111122 
LUMCON,ioos:station:LUMCON:102:1,2014-12-11T10:45:00Z,29.1870,-90.6093,1.85,23.85,1111122 
LUMCON,ioos:station:LUMCON:102:1,2014-12-11T11:45:00Z,29.1870,-90.6093,1.85,23.76,1111122 
LUMCON,ioos:station:LUMCON:102:1,2014-12-11T12:45:00Z,29.1870,-90.6093,1.85,23.66,1111122 
LUMCON,ioos:station:LUMCON:102:1,2014-12-11T14:45:00Z,29.1870,-90.6093,1.87,24.78,1111122 
LUMCON,ioos:station:LUMCON:102:1,2014-12-11T15:45:00Z,29.1870,-90.6093,1.93,24.91,1111122 
LUMCON,ioos:station:LUMCON:102:1,2014-12-11T16:45:00Z,29.1870,-90.6093,1.97,25.8,1111122 
LUMCON,ioos:station:LUMCON:102:1,2014-12-11T17:45:00Z,29.1870,-90.6093,2.02,26.51,1111122 
LUMCON,ioos:station:LUMCON:102:1,2014-12-11T18:45:00Z,29.1870,-90.6093,2.07,26.85,1111122 
LUMCON,ioos:station:LUMCON:102:1,2014-12-11T19:45:00Z,29.1870,-90.6093,2.11,27.01,1111122 
LUMCON,ioos:station:LUMCON:102:1,2014-12-11T20:45:00Z,29.1870,-90.6093,2.15,27.03,1111122 
LUMCON,ioos:station:LUMCON:102:1,2014-12-11T21:45:00Z,29.1870,-90.6093,2.18,27.32,1111122 
LUMCON,ioos:station:LUMCON:102:1,2014-12-11T22:45:00Z,29.1870,-90.6093,2.19,27.86,1111122 
LUMCON,ioos:station:LUMCON:102:1,2014-12-11T23:45:00Z,29.1870,-90.6093,2.19,28.22,1111122 
LUMCON,ioos:station:LUMCON:102:1,2014-12-12T00:45:00Z,29.1870,-90.6093,2.19,28.44,1111122 
LUMCON,ioos:station:LUMCON:102:1,2014-12-12T01:45:00Z,29.1870,-90.6093,2.17,28.65,1111122 
LUMCON,ioos:station:LUMCON:102:1,2014-12-12T02:45:00Z,29.1870,-90.6093,2.17,28.87,1111122 
LUMCON,ioos:station:LUMCON:102:1,2014-12-12T03:45:00Z,29.1870,-90.6093,2.14,28.97,1111122 
LUMCON,ioos:station:LUMCON:102:1,2014-12-12T04:45:00Z,29.1870,-90.6093,2.12,28.31,1111122 
LUMCON,ioos:station:LUMCON:102:1,2014-12-12T06:45:00Z,29.1870,-90.6093,2.04,28.52,1111122 
LUMCON,ioos:station:LUMCON:102:1,2014-12-12T07:45:00Z,29.1870,-90.6093,2.0,27.0,1111122 
LUMCON,ioos:station:LUMCON:102:1,2014-12-12T08:45:00Z,29.1870,-90.6093,1.98,26.09,1111122 
LUMCON,ioos:station:LUMCON:102:1,2014-12-12T09:45:00Z,29.1870,-90.6093,1.96,25.21,1111122 
LUMCON,ioos:station:LUMCON:102:1,2014-12-12T10:45:00Z,29.1870,-90.6093,1.94,25.18,1111122 
LUMCON,ioos:station:LUMCON:102:1,2014-12-12T11:45:00Z,29.1870,-90.6093,1.94,25.14,1111122 
LUMCON,ioos:station:LUMCON:102:1,2014-12-12T12:45:00Z,29.1870,-90.6093,1.93,25.23,1111122 
LUMCON,ioos:station:LUMCON:102:1,2014-12-12T13:45:00Z,29.1870,-90.6093,1.95,25.44,1111122 
LUMCON,ioos:station:LUMCON:102:1,2014-12-12T14:45:00Z,29.1870,-90.6093,1.96,25.93,1111122 
LUMCON,ioos:station:LUMCON:102:1,2014-12-12T15:45:00Z,29.1870,-90.6093,2.0,26.01,1111122 
LUMCON,ioos:station:LUMCON:102:1,2014-12-12T16:45:00Z,29.1870,-90.6093,2.03,26.27,1111122 
LUMCON,ioos:station:LUMCON:102:1,2014-12-12T17:45:00Z,29.1870,-90.6093,2.08,27.16,1111122 
LUMCON,ioos:station:LUMCON:102:1,2014-12-12T18:45:00Z,29.1870,-90.6093,2.12,27.1,1111122 
LUMCON,ioos:station:LUMCON:102:1,2014-12-12T19:45:00Z,29.1870,-90.6093,2.13,27.13,1111122 
LUMCON,ioos:station:LUMCON:102:1,2014-12-12T20:45:00Z,29.1870,-90.6093,2.15,27.77,1111122 
LUMCON,ioos:station:LUMCON:102:1,2014-12-12T21:45:00Z,29.1870,-90.6093,2.18,27.93,1111122 
LUMCON,ioos:station:LUMCON:102:1,2014-12-12T22:45:00Z,29.1870,-90.6093,2.19,28.31,1111122 
LUMCON,ioos:station:LUMCON:102:1,2014-12-12T23:45:00Z,29.1870,-90.6093,2.18,28.73,1111122 
LUMCON,ioos:station:LUMCON:102:1,2014-12-13T00:45:00Z,29.1870,-90.6093,2.17,29.1,1111122 
LUMCON,ioos:station:LUMCON:102:1,2014-12-13T01:45:00Z,29.1870,-90.6093,2.15,29.27,1111122 
LUMCON,ioos:station:LUMCON:102:1,2014-12-13T02:45:00Z,29.1870,-90.6093,2.14,29.33,1111122 
LUMCON,ioos:station:LUMCON:102:1,2014-12-13T03:45:00Z,29.1870,-90.6093,2.12,29.02,1111122 
LUMCON,ioos:station:LUMCON:102:1,2014-12-13T04:45:00Z,29.1870,-90.6093,2.1,28.67,1111122 
LUMCON,ioos:station:LUMCON:102:1,2014-12-13T05:45:00Z,29.1870,-90.6093,2.08,28.46,1111122 
LUMCON,ioos:station:LUMCON:102:1,2014-12-13T06:45:00Z,29.1870,-90.6093,2.05,28.25,1111122 
LUMCON,ioos:station:LUMCON:102:1,2014-12-13T07:45:00Z,29.1870,-90.6093,2.04,28.09,1111122 
LUMCON,ioos:station:LUMCON:102:1,2014-12-13T08:45:00Z,29.1870,-90.6093,2.02,27.94,1111122 
LUMCON,ioos:station:LUMCON:102:1,2014-12-13T09:45:00Z,29.1870,-90.6093,2.0,27.93,1111122 
LUMCON,ioos:station:LUMCON:102:1,2014-12-13T10:45:00Z,29.1870,-90.6093,2.0,27.78,1111122 
LUMCON,ioos:station:LUMCON:102:1,2014-12-13T11:45:00Z,29.1870,-90.6093,1.99,28.01,1111122 
LUMCON,ioos:station:LUMCON:102:1,2014-12-13T12:45:00Z,29.1870,-90.6093,1.99,27.88,1111122 
LUMCON,ioos:station:LUMCON:102:1,2014-12-13T13:45:00Z,29.1870,-90.6093,2.0,28.0,1111122 
LUMCON,ioos:station:LUMCON:102:1,2014-12-13T14:45:00Z,29.1870,-90.6093,2.01,28.23,1111122 
LUMCON,ioos:station:LUMCON:102:1,2014-12-13T15:45:00Z,29.1870,-90.6093,2.03,28.5,1111122 
LUMCON,ioos:station:LUMCON:102:1,2014-12-13T16:45:00Z,29.1870,-90.6093,2.06,28.65,1111122 
LUMCON,ioos:station:LUMCON:102:1,2014-12-13T17:45:00Z,29.1870,-90.6093,2.09,28.63,1111122 
LUMCON,ioos:station:LUMCON:102:1,2014-12-13T18:45:00Z,29.1870,-90.6093,2.11,28.75,1111122 
LUMCON,ioos:station:LUMCON:102:1,2014-12-13T19:45:00Z,29.1870,-90.6093,2.13,28.84,1111122 
LUMCON,ioos:station:LUMCON:102:1,2014-12-13T20:45:00Z,29.1870,-90.6093,2.14,28.92,1111122 
LUMCON,ioos:station:LUMCON:102:1,2014-12-13T21:45:00Z,29.1870,-90.6093,2.15,28.94,1111122 
LUMCON,ioos:station:LUMCON:102:1,2014-12-13T22:45:00Z,29.1870,-90.6093,2.14,28.97,1111122 
LUMCON,ioos:station:LUMCON:102:1,2014-12-13T23:45:00Z,29.1870,-90.6093,2.13,28.96,1111122 
LUMCON,ioos:station:LUMCON:102:1,2014-12-14T00:45:00Z,29.1870,-90.6093,2.11,28.93,1111122 
LUMCON,ioos:station:LUMCON:102:1,2014-12-14T01:45:00Z,29.1870,-90.6093,2.08,28.85,1111122 
LUMCON,ioos:station:LUMCON:102:1,2014-12-14T02:45:00Z,29.1870,-90.6093,2.06,28.7,1111122 
LUMCON,ioos:station:LUMCON:102:1,2014-12-14T03:45:00Z,29.1870,-90.6093,2.06,28.5,1111122 
LUMCON,ioos:station:LUMCON:102:1,2014-12-14T04:45:00Z,29.1870,-90.6093,2.05,28.22,1111122 
LUMCON,ioos:station:LUMCON:102:1,2014-12-14T05:45:00Z,29.1870,-90.6093,2.04,27.97,1111122 
LUMCON,ioos:station:LUMCON:102:1,2014-12-14T06:45:00Z,29.1870,-90.6093,2.05,27.94,1111122 
LUMCON,ioos:station:LUMCON:102:1,2014-12-14T07:45:00Z,29.1870,-90.6093,2.04,27.91,1111122 
LUMCON,ioos:station:LUMCON:102:1,2014-12-14T08:45:00Z,29.1870,-90.6093,2.05,28.03,1111122 
LUMCON,ioos:station:LUMCON:102:1,2014-12-14T09:45:00Z,29.1870,-90.6093,2.05,28.46,1111122 
LUMCON,ioos:station:LUMCON:102:1,2014-12-14T10:45:00Z,29.1870,-90.6093,2.07,28.92,1111122 
LUMCON,ioos:station:LUMCON:102:1,2014-12-14T11:30:00Z,29.1870,-90.6093,2.07,29.03,1111122 
LUMCON,ioos:station:LUMCON:102:1,2014-12-14T12:45:00Z,29.1870,-90.6093,2.07,29.05,1111122 
LUMCON,ioos:station:LUMCON:102:1,2014-12-14T13:45:00Z,29.1870,-90.6093,2.09,29.07,1111122 
LUMCON,ioos:station:LUMCON:102:1,2014-12-14T14:45:00Z,29.1870,-90.6093,2.12,29.08,1111122 
LUMCON,ioos:station:LUMCON:102:1,2014-12-14T15:45:00Z,29.1870,-90.6093,2.14,29.11,1111122 
LUMCON,ioos:station:LUMCON:102:1,2014-12-14T16:45:00Z,29.1870,-90.6093,2.19,29.14,1111122 
LUMCON,ioos:station:LUMCON:102:1,2014-12-14T17:45:00Z,29.1870,-90.6093,2.22,29.21,1111122 
LUMCON,ioos:station:LUMCON:102:1,2014-12-14T18:45:00Z,29.1870,-90.6093,2.25,29.31,1111122 
LUMCON,ioos:station:LUMCON:102:1,2014-12-14T19:45:00Z,29.1870,-90.6093,2.28,29.34,1111122 
LUMCON,ioos:station:LUMCON:102:1,2014-12-14T20:45:00Z,29.1870,-90.6093,2.3,29.44,1111122 
LUMCON,ioos:station:LUMCON:102:1,2014-12-14T21:45:00Z,29.1870,-90.6093,2.31,29.49,1111122 
LUMCON,ioos:station:LUMCON:102:1,2014-12-14T22:45:00Z,29.1870,-90.6093,2.31,29.56,1111122 
LUMCON,ioos:station:LUMCON:102:1,2014-12-14T23:45:00Z,29.1870,-90.6093,2.29,29.55,1111122 
LUMCON,ioos:station:LUMCON:102:1,2014-12-15T00:45:00Z,29.1870,-90.6093,2.26,29.5,1111122 
LUMCON,ioos:station:LUMCON:102:1,2014-12-15T01:45:00Z,29.1870,-90.6093,2.23,29.4,1111122 
LUMCON,ioos:station:LUMCON:102:1,2014-12-15T02:45:00Z,29.1870,-90.6093,2.22,29.34,1111122 
LUMCON,ioos:station:LUMCON:102:1,2014-12-15T03:45:00Z,29.1870,-90.6093,2.19,29.26,1111122 
LUMCON,ioos:station:LUMCON:102:1,2014-12-15T04:45:00Z,29.1870,-90.6093,2.18,29.16,1111122 
LUMCON,ioos:station:LUMCON:102:1,2014-12-15T05:45:00Z,29.1870,-90.6093,2.16,29.03,1111122 
LUMCON,ioos:station:LUMCON:102:1,2014-12-15T06:45:00Z,29.1870,-90.6093,2.16,26.19,1111122 
LUMCON,ioos:station:LUMCON:102:1,2014-12-15T07:45:00Z,29.1870,-90.6093,2.17,26.1,1111122 
LUMCON,ioos:station:LUMCON:102:1,2014-12-15T08:45:00Z,29.1870,-90.6093,2.17,25.7,1111122 
LUMCON,ioos:station:LUMCON:102:1,2014-12-15T09:45:00Z,29.1870,-90.6093,2.19,25.95,1111122 
LUMCON,ioos:station:LUMCON:102:1,2014-12-15T10:45:00Z,29.1870,-90.6093,2.2,25.17,1111122 
LUMCON,ioos:station:LUMCON:102:1,2014-12-15T11:45:00Z,29.1870,-90.6093,2.21,25.31,1111122 
LUMCON,ioos:station:LUMCON:102:1,2014-12-15T12:45:00Z,29.1870,-90.6093,2.22,26.37,1111122 
LUMCON,ioos:station:LUMCON:102:1,2014-12-15T13:45:00Z,29.1870,-90.6093,2.23,26.76,1111122 
LUMCON,ioos:station:LUMCON:102:1,2014-12-15T14:45:00Z,29.1870,-90.6093,2.25,26.7,1111122 
LUMCON,ioos:station:LUMCON:102:1,2014-12-15T15:45:00Z,29.1870,-90.6093,2.27,26.23,1111122 
LUMCON,ioos:station:LUMCON:102:1,2014-12-15T16:45:00Z,29.1870,-90.6093,2.29,26.63,1111122 
LUMCON,ioos:station:LUMCON:102:1,2014-12-15T17:45:00Z,29.1870,-90.6093,2.31,26.57,1111122 
LUMCON,ioos:station:LUMCON:102:1,2014-12-15T18:45:00Z,29.1870,-90.6093,2.33,29.37,1111122 
LUMCON,ioos:station:LUMCON:102:1,2014-12-15T19:45:00Z,29.1870,-90.6093,2.35,28.48,1111122 
LUMCON,ioos:station:LUMCON:102:1,2014-12-15T20:45:00Z,29.1870,-90.6093,2.35,27.52,1111122 
LUMCON,ioos:station:LUMCON:102:1,2014-12-15T21:45:00Z,29.1870,-90.6093,2.33,27.16,1111122 
LUMCON,ioos:station:LUMCON:102:1,2014-12-15T22:45:00Z,29.1870,-90.6093,2.32,29.4,1111122 
LUMCON,ioos:station:LUMCON:102:1,2014-12-15T23:45:00Z,29.1870,-90.6093,2.3,29.0,1111122 
LUMCON,ioos:station:LUMCON:102:1,2014-12-16T01:45:00Z,29.1870,-90.6093,2.22,28.78,1111122 
LUMCON,ioos:station:LUMCON:102:1,2014-12-16T02:45:00Z,29.1870,-90.6093,2.18,29.29,1111122 
LUMCON,ioos:station:LUMCON:102:1,2014-12-16T03:45:00Z,29.1870,-90.6093,2.16,29.1,1111122 
LUMCON,ioos:station:LUMCON:102:1,2014-12-16T04:45:00Z,29.1870,-90.6093,2.14,29.11,1111122 
LUMCON,ioos:station:LUMCON:102:1,2014-12-16T05:45:00Z,29.1870,-90.6093,2.11,29.11,1111122 
LUMCON,ioos:station:LUMCON:102:1,2014-12-16T10:45:00Z,29.1870,-90.6093,2.08,28.41,1111122 
LUMCON,ioos:station:LUMCON:102:1,2014-12-16T11:45:00Z,29.1870,-90.6093,2.09,28.04,1111122 
LUMCON,ioos:station:LUMCON:102:1,2014-12-16T12:45:00Z,29.1870,-90.6093,2.13,28.75,1111122 
LUMCON,ioos:station:LUMCON:102:1,2014-12-16T13:45:00Z,29.1870,-90.6093,2.14,29.04,1111122 
LUMCON,ioos:station:LUMCON:102:1,2014-12-16T14:45:00Z,29.1870,-90.6093,2.17,29.13,1111122 
LUMCON,ioos:station:LUMCON:102:1,2014-12-16T15:45:00Z,29.1870,-90.6093,2.19,29.19,1111122 
LUMCON,ioos:station:LUMCON:102:1,2014-12-16T16:45:00Z,29.1870,-90.6093,2.2,29.14,1111122 
LUMCON,ioos:station:LUMCON:102:1,2014-12-16T17:45:00Z,29.1870,-90.6093,2.21,29.17,1111122 
LUMCON,ioos:station:LUMCON:102:1,2014-12-16T18:45:00Z,29.1870,-90.6093,2.2,29.2,1111122 
LUMCON,ioos:station:LUMCON:102:1,2014-12-16T19:45:00Z,29.1870,-90.6093,2.2,29.26,1111122 
LUMCON,ioos:station:LUMCON:102:1,2014-12-16T20:45:00Z,29.1870,-90.6093,2.19,29.3,1111122 
LUMCON,ioos:station:LUMCON:102:1,2014-12-16T21:45:00Z,29.1870,-90.6093,2.18,29.25,1111122 
LUMCON,ioos:station:LUMCON:102:1,2014-12-16T22:45:00Z,29.1870,-90.6093,2.15,29.2,1111122 
LUMCON,ioos:station:LUMCON:102:1,2014-12-16T23:45:00Z,29.1870,-90.6093,2.09,28.51,1111122 
LUMCON,ioos:station:LUMCON:102:1,2014-12-17T00:45:00Z,29.1870,-90.6093,2.04,26.9,1111122 
LUMCON,ioos:station:LUMCON:102:1,2014-12-17T01:45:00Z,29.1870,-90.6093,1.99,26.62,1111122 
LUMCON,ioos:station:LUMCON:102:1,2014-12-17T02:45:00Z,29.1870,-90.6093,1.96,26.09,1111122 
LUMCON,ioos:station:LUMCON:102:1,2014-12-17T03:45:00Z,29.1870,-90.6093,1.93,27.38,1111122 
LUMCON,ioos:station:LUMCON:102:1,2014-12-17T04:45:00Z,29.1870,-90.6093,1.92,26.68,1111122 
LUMCON,ioos:station:LUMCON:102:1,2014-12-17T05:45:00Z,29.1870,-90.6093,1.89,26.39,1111122 
LUMCON,ioos:station:LUMCON:102:1,2014-12-17T06:45:00Z,29.1870,-90.6093,1.88,26.11,1111122 
LUMCON,ioos:station:LUMCON:102:1,2014-12-17T07:45:00Z,29.1870,-90.6093,1.93,26.25,1111122 
LUMCON,ioos:station:LUMCON:102:1,2014-12-17T08:45:00Z,29.1870,-90.6093,1.95,27.08,1111122 
LUMCON,ioos:station:LUMCON:102:1,2014-12-17T09:45:00Z,29.1870,-90.6093,1.96,27.06,1111122 
LUMCON,ioos:station:LUMCON:102:1,2014-12-17T10:45:00Z,29.1870,-90.6093,2.01,27.03,1111122 
LUMCON,ioos:station:LUMCON:102:1,2014-12-17T11:45:00Z,29.1870,-90.6093,2.06,27.59,1111122 
LUMCON,ioos:station:LUMCON:102:1,2014-12-17T12:45:00Z,29.1870,-90.6093,2.11,27.86,1111122 
LUMCON,ioos:station:LUMCON:102:1,2014-12-17T13:45:00Z,29.1870,-90.6093,2.13,27.96,1111122 
LUMCON,ioos:station:LUMCON:102:1,2014-12-17T14:45:00Z,29.1870,-90.6093,2.16,27.88,1111122 
LUMCON,ioos:station:LUMCON:102:1,2014-12-17T15:45:00Z,29.1870,-90.6093,2.16,27.77,1111122 